Time,TemperatureF,DewpointF,PressureIn,WindDirection,WindDirectionDegrees,WindSpeedMPH,WindSpeedGustMPH,Humidity,HourlyPrecipIn,Conditions,Clouds,dailyrainin,SoftwareType,DateUTC
2013-04-19 00:09:00,50.3,33.0,30.05,NNE,18,6.0,15.0,51,0.00,,,0.00,weatherlink.com 1.10,2013-04-19 05:09:00,
2013-04-19 00:24:00,50.0,32.0,30.06,North,4,5.0,13.0,50,0.00,,,0.00,weatherlink.com 1.10,2013-04-19 05:24:00,
2013-04-19 00:39:00,49.7,32.0,30.06,WNW,288,12.0,18.0,51,0.00,,,0.00,weatherlink.com 1.10,2013-04-19 05:39:00,
2013-04-19 00:54:00,49.3,32.0,30.07,NW,316,7.0,18.0,51,0.00,,,0.00,weatherlink.com 1.10,2013-04-19 05:54:00,
2013-04-19 01:10:00,48.8,32.0,30.07,NW,320,9.0,19.0,52,0.00,,,0.00,weatherlink.com 1.10,2013-04-19 06:10:00,
2013-04-19 01:25:00,48.3,32.0,30.07,NW,323,8.0,17.0,53,0.00,,,0.00,weatherlink.com 1.10,2013-04-19 06:25:00,
2013-04-19 01:40:00,47.9,32.0,30.08,North,351,11.0,19.0,54,0.00,,,0.00,weatherlink.com 1.10,2013-04-19 06:40:00,
2013-04-19 01:55:00,47.3,32.0,30.09,NNW,330,8.0,11.0,55,0.00,,,0.00,weatherlink.com 1.10,2013-04-19 06:55:00,
2013-04-19 02:10:00,47.0,31.0,30.09,NNE,17,4.0,18.0,55,0.00,,,0.00,weatherlink.com 1.10,2013-04-19 07:10:00,
2013-04-19 02:25:00,46.7,31.0,30.11,North,360,5.0,12.0,55,0.00,,,0.00,weatherlink.com 1.10,2013-04-19 07:25:00,
2013-04-19 02:40:00,46.3,31.0,30.12,NNE,20,4.0,15.0,55,0.00,,,0.00,weatherlink.com 1.10,2013-04-19 07:40:00,
2013-04-19 02:55:00,45.8,31.0,30.14,NW,321,2.0,9.0,56,0.00,,,0.00,weatherlink.com 1.10,2013-04-19 07:55:00,
2013-04-19 03:10:00,45.2,30.0,30.15,NNW,340,6.0,214.0,56,0.00,,,0.00,weatherlink.com 1.10,2013-04-19 08:10:00,
2013-04-19 03:25:00,44.6,30.0,30.15,NNW,346,2.0,5.0,58,0.00,,,0.00,weatherlink.com 1.10,2013-04-19 08:25:00,
2013-04-19 03:40:00,44.2,30.0,30.16,NW,311,0.0,5.0,59,0.00,,,0.00,weatherlink.com 1.10,2013-04-19 08:40:00,
2013-04-19 03:55:00,43.3,30.0,30.17,NNW,343,0.0,1.0,60,0.00,,,0.00,weatherlink.com 1.10,2013-04-19 08:55:00,
2013-04-19 04:12:00,41.7,30.0,30.17,WSW,257,0.0,1.0,64,0.00,,,0.00,weatherlink.com 1.10,2013-04-19 09:12:00,
2013-04-19 04:25:00,40.9,30.0,30.18,NW,313,1.0,3.0,65,0.00,,,0.00,weatherlink.com 1.10,2013-04-19 09:25:00,
2013-04-19 04:40:00,41.7,29.0,30.18,North,7,0.0,3.0,62,0.00,,,0.00,weatherlink.com 1.10,2013-04-19 09:40:00,
2013-04-19 04:55:00,42.5,29.0,30.17,NNW,340,3.0,6.0,60,0.00,,,0.00,weatherlink.com 1.10,2013-04-19 09:55:00,
2013-04-19 05:10:00,42.9,29.0,30.17,NW,314,7.0,12.0,59,0.00,,,0.00,weatherlink.com 1.10,2013-04-19 10:10:00,
2013-04-19 05:25:00,43.1,29.0,30.18,NW,315,8.0,11.0,58,0.00,,,0.00,weatherlink.com 1.10,2013-04-19 10:25:00,
2013-04-19 05:40:00,42.9,29.0,30.18,NNE,22,4.0,10.0,59,0.00,,,0.00,weatherlink.com 1.10,2013-04-19 10:40:00,
2013-04-19 05:55:00,42.8,29.0,30.19,NW,318,5.0,14.0,59,0.00,,,0.00,weatherlink.com 1.10,2013-04-19 10:55:00,
2013-04-19 06:10:00,42.6,29.0,30.19,NW,312,10.0,12.0,60,0.00,,,0.00,weatherlink.com 1.10,2013-04-19 11:10:00,
2013-04-19 06:26:00,42.2,29.0,30.19,North,3,6.0,9.0,60,0.00,,,0.00,weatherlink.com 1.10,2013-04-19 11:26:00,
2013-04-19 06:41:00,42.1,29.0,30.20,NNW,330,4.0,11.0,60,0.00,,,0.00,weatherlink.com 1.10,2013-04-19 11:41:00,
2013-04-19 06:56:00,42.2,28.0,30.20,NW,309,3.0,12.0,58,0.00,,,0.00,weatherlink.com 1.10,2013-04-19 11:56:00,
2013-04-19 07:11:00,42.3,28.0,30.21,WNW,297,5.0,12.0,58,0.00,,,0.00,weatherlink.com 1.10,2013-04-19 12:11:00,
2013-04-19 07:26:00,42.7,28.0,30.22,NNW,332,3.0,12.0,56,0.00,,,0.00,weatherlink.com 1.10,2013-04-19 12:26:00,
2013-04-19 07:41:00,43.7,27.0,30.23,WNW,295,3.0,13.0,52,0.00,,,0.00,weatherlink.com 1.10,2013-04-19 12:41:00,
2013-04-19 07:56:00,44.8,27.0,30.24,NNW,333,8.0,17.0,49,0.00,,,0.00,weatherlink.com 1.10,2013-04-19 12:56:00,
2013-04-19 08:11:00,45.9,27.0,30.25,North,359,7.0,15.0,47,0.00,,,0.00,weatherlink.com 1.10,2013-04-19 13:11:00,
2013-04-19 08:26:00,46.9,26.0,30.26,NNW,331,6.0,16.0,45,0.00,,,0.00,weatherlink.com 1.10,2013-04-19 13:26:00,
2013-04-19 08:41:00,48.2,26.0,30.26,WNW,292,7.0,17.0,42,0.00,,,0.00,weatherlink.com 1.10,2013-04-19 13:41:00,
2013-04-19 08:56:00,49.2,24.0,30.27,NW,317,14.0,20.0,37,0.00,,,0.00,weatherlink.com 1.10,2013-04-19 13:56:00,
2013-04-19 09:11:00,49.9,22.0,30.27,NW,308,16.0,23.0,33,0.00,,,0.00,weatherlink.com 1.10,2013-04-19 14:11:00,
2013-04-19 09:26:00,50.7,21.0,30.28,NNE,23,11.0,23.0,31,0.00,,,0.00,weatherlink.com 1.10,2013-04-19 14:26:00,
2013-04-19 09:41:00,51.4,20.0,30.28,NW,316,14.0,25.0,29,0.00,,,0.00,weatherlink.com 1.10,2013-04-19 14:41:00,
2013-04-19 09:56:00,52.4,17.0,30.28,NW,311,9.0,24.0,25,0.00,,,0.00,weatherlink.com 1.10,2013-04-19 14:56:00,
2013-04-19 10:11:00,52.9,17.0,30.29,North,1,12.0,21.0,24,0.00,,,0.00,weatherlink.com 1.10,2013-04-19 15:11:00,
2013-04-19 10:41:00,53.9,20.0,30.29,WNW,297,13.0,22.0,27,0.00,,,0.00,weatherlink.com 1.10,2013-04-19 15:41:00,
2013-04-19 10:56:00,54.7,18.0,30.29,WNW,300,19.0,24.0,24,0.00,,,0.00,weatherlink.com 1.10,2013-04-19 15:56:00,
2013-04-19 11:11:00,55.6,20.0,30.30,NW,304,13.0,19.0,25,0.00,,,0.00,weatherlink.com 1.10,2013-04-19 16:11:00,
2013-04-19 11:26:00,56.8,21.0,30.30,WSW,243,7.0,17.0,25,0.00,,,0.00,weatherlink.com 1.10,2013-04-19 16:26:00,
2013-04-19 11:41:00,56.7,22.0,30.30,WNW,297,5.0,19.0,26,0.00,,,0.00,weatherlink.com 1.10,2013-04-19 16:41:00,
2013-04-19 11:56:00,57.4,23.0,30.29,NNW,327,10.0,18.0,26,0.00,,,0.00,weatherlink.com 1.10,2013-04-19 16:56:00,
2013-04-19 12:11:00,58.2,21.0,30.29,NW,307,6.0,19.0,24,0.00,,,0.00,weatherlink.com 1.10,2013-04-19 17:11:00,
2013-04-19 12:26:00,58.7,21.0,30.28,NW,315,7.0,19.0,23,0.00,,,0.00,weatherlink.com 1.10,2013-04-19 17:26:00,
2013-04-19 12:41:00,59.2,23.0,30.28,NW,309,2.0,21.0,25,0.00,,,0.00,weatherlink.com 1.10,2013-04-19 17:41:00,
2013-04-19 12:57:00,59.6,23.0,30.27,NNW,338,12.0,16.0,24,0.00,,,0.00,weatherlink.com 1.10,2013-04-19 17:57:00,
2013-04-19 13:12:00,61.3,22.0,30.27,WNW,284,2.0,11.0,22,0.00,,,0.00,weatherlink.com 1.10,2013-04-19 18:12:00,
2013-04-19 13:27:00,61.5,22.0,30.26,WNW,293,2.0,12.0,22,0.00,,,0.00,weatherlink.com 1.10,2013-04-19 18:27:00,
2013-04-19 13:42:00,61.3,24.0,30.26,NNW,330,9.0,15.0,24,0.00,,,0.00,weatherlink.com 1.10,2013-04-19 18:42:00,
2013-04-19 13:57:00,61.7,22.0,30.25,WNW,293,5.0,19.0,22,0.00,,,0.00,weatherlink.com 1.10,2013-04-19 18:57:00,
2013-04-19 14:12:00,61.9,21.0,30.24,NW,307,7.0,15.0,21,0.00,,,0.00,weatherlink.com 1.10,2013-04-19 19:12:00,
2013-04-19 14:27:00,62.7,24.0,30.23,NNE,19,5.0,18.0,23,0.00,,,0.00,weatherlink.com 1.10,2013-04-19 19:27:00,
2013-04-19 14:42:00,62.8,23.0,30.23,NW,311,5.0,14.0,22,0.00,,,0.00,weatherlink.com 1.10,2013-04-19 19:42:00,
2013-04-19 14:57:00,63.7,23.0,30.22,NNE,20,5.0,15.0,21,0.00,,,0.00,weatherlink.com 1.10,2013-04-19 19:57:00,
2013-04-19 15:12:00,63.5,24.0,30.21,ENE,64,6.0,18.0,22,0.00,,,0.00,weatherlink.com 1.10,2013-04-19 20:12:00,
2013-04-19 15:27:00,64.6,25.0,30.20,NW,304,7.0,18.0,22,0.00,,,0.00,weatherlink.com 1.10,2013-04-19 20:27:00,
2013-04-19 15:42:00,64.2,23.0,30.19,WNW,300,11.0,13.0,21,0.00,,,0.00,weatherlink.com 1.10,2013-04-19 20:42:00,
2013-04-19 15:57:00,64.7,23.0,30.18,NW,315,6.0,11.0,20,0.00,,,0.00,weatherlink.com 1.10,2013-04-19 20:57:00,
2013-04-19 16:12:00,65.2,26.0,30.17,NW,317,8.0,12.0,23,0.00,,,0.00,weatherlink.com 1.10,2013-04-19 21:12:00,
2013-04-19 16:27:00,64.5,24.0,30.16,NW,315,2.0,13.0,21,0.00,,,0.00,weatherlink.com 1.10,2013-04-19 21:27:00,
2013-04-19 16:42:00,65.1,22.0,30.16,NW,311,6.0,12.0,19,0.00,,,0.00,weatherlink.com 1.10,2013-04-19 21:42:00,
2013-04-19 16:57:00,66.4,24.0,30.15,ENE,70,3.0,8.0,20,0.00,,,0.00,weatherlink.com 1.10,2013-04-19 21:57:00,
2013-04-19 17:12:00,66.6,23.0,30.14,NNE,17,5.0,11.0,19,0.00,,,0.00,weatherlink.com 1.10,2013-04-19 22:12:00,
2013-04-19 17:27:00,65.6,22.0,30.14,WNW,300,8.0,9.0,19,0.00,,,0.00,weatherlink.com 1.10,2013-04-19 22:27:00,
2013-04-19 17:42:00,65.7,22.0,30.14,WNW,297,6.0,13.0,19,0.00,,,0.00,weatherlink.com 1.10,2013-04-19 22:42:00,
2013-04-19 17:57:00,66.8,23.0,30.14,NW,309,5.0,9.0,19,0.00,,,0.00,weatherlink.com 1.10,2013-04-19 22:57:00,
2013-04-19 18:12:00,65.8,24.0,30.14,NW,321,4.0,10.0,20,0.00,,,0.00,weatherlink.com 1.10,2013-04-19 23:12:00,
2013-04-19 18:27:00,65.4,23.0,30.14,NW,309,4.0,7.0,20,0.00,,,0.00,weatherlink.com 1.10,2013-04-19 23:27:00,
2013-04-19 18:42:00,65.2,23.0,30.13,WSW,245,3.0,7.0,20,0.00,,,0.00,weatherlink.com 1.10,2013-04-19 23:42:00,
2013-04-19 18:57:00,65.6,22.0,30.13,NW,304,5.0,6.0,19,0.00,,,0.00,weatherlink.com 1.10,2013-04-19 23:57:00,
2013-04-19 19:12:00,64.8,23.0,30.13,ENE,59,1.0,6.0,20,0.00,,,0.00,weatherlink.com 1.10,2013-04-20 00:12:00,
2013-04-19 19:27:00,63.8,22.0,30.13,WNW,299,1.0,5.0,20,0.00,,,0.00,weatherlink.com 1.10,2013-04-20 00:27:00,
2013-04-19 19:42:00,61.6,23.0,30.13,NW,305,2.0,3.0,23,0.00,,,0.00,weatherlink.com 1.10,2013-04-20 00:42:00,
2013-04-19 19:58:00,58.5,24.0,30.13,NW,305,1.0,1.0,27,0.00,,,0.00,weatherlink.com 1.10,2013-04-20 00:58:00,
2013-04-19 20:12:00,54.6,27.0,30.14,NE,43,1.0,1.0,35,0.00,,,0.00,weatherlink.com 1.10,2013-04-20 01:12:00,
2013-04-19 20:27:00,52.5,28.0,30.14,NW,321,0.0,2.0,39,0.00,,,0.00,weatherlink.com 1.10,2013-04-20 01:27:00,
2013-04-19 20:42:00,50.4,28.0,30.15,NW,322,0.0,0.0,42,0.00,,,0.00,weatherlink.com 1.10,2013-04-20 01:42:00,
2013-04-19 20:57:00,47.8,29.0,30.15,NW,321,0.0,0.0,48,0.00,,,0.00,weatherlink.com 1.10,2013-04-20 01:57:00,
2013-04-19 21:12:00,46.3,28.0,30.16,NW,321,0.0,0.0,50,0.00,,,0.00,weatherlink.com 1.10,2013-04-20 02:12:00,
2013-04-19 21:27:00,45.1,28.0,30.16,NW,321,0.0,0.0,51,0.00,,,0.00,weatherlink.com 1.10,2013-04-20 02:27:00,
2013-04-19 21:42:00,44.1,29.0,30.16,NW,322,0.0,0.0,56,0.00,,,0.00,weatherlink.com 1.10,2013-04-20 02:42:00,
2013-04-19 21:57:00,42.8,28.0,30.17,NW,323,0.0,0.0,57,0.00,,,0.00,weatherlink.com 1.10,2013-04-20 02:57:00,
2013-04-19 22:12:00,41.9,29.0,30.18,NW,323,0.0,0.0,61,0.00,,,0.00,weatherlink.com 1.10,2013-04-20 03:12:00,
2013-04-19 22:27:00,41.0,29.0,30.18,NW,323,0.0,0.0,63,0.00,,,0.00,weatherlink.com 1.10,2013-04-20 03:27:00,
2013-04-19 22:42:00,40.3,30.0,30.18,WNW,288,0.0,0.0,66,0.00,,,0.00,weatherlink.com 1.10,2013-04-20 03:42:00,
2013-04-19 22:57:00,39.5,30.0,30.19,WNW,288,0.0,0.0,68,0.00,,,0.00,weatherlink.com 1.10,2013-04-20 03:57:00,
2013-04-19 23:12:00,38.9,29.0,30.19,WNW,289,0.0,0.0,67,0.00,,,0.00,weatherlink.com 1.10,2013-04-20 04:12:00,
2013-04-19 23:27:00,38.3,29.0,30.19,SW,225,0.0,0.0,70,0.00,,,0.00,weatherlink.com 1.10,2013-04-20 04:27:00,
2013-04-19 23:42:00,38.0,29.0,30.19,SW,225,0.0,0.0,71,0.00,,,0.00,weatherlink.com 1.10,2013-04-20 04:42:00,
2013-04-19 23:57:00,37.5,30.0,30.19,SW,236,0.0,2.0,73,0.00,,,0.00,weatherlink.com 1.10,2013-04-20 04:57:00,